Weather past 2 weeks in Willemstad, Curaçao

Now
86 °F

Scattered clouds.


Feels Like: 93 °F
Forecast: 80 / 87 °F
Wind: 20 mph from East

Location: Hato Airport - Curacao

Current Time: May 22, 2015 at 12:54:40 PM

Latest Report: May 22, 2015 at 12:00 PM


Visibility: N/A

Pressure: 30.01 "Hg

Humidity: 66%

Dew point: 73 °F

Location of WillemstadLocation

Historic Weather in Willemstad — Graph

°F

Willemstad temperature yesterday

Maximum temperature yesterday: 88 °F (at 11:00 AM)
Minimum temperature yesterday: 81 °F (at 12:00 AM)
Average temperature yesterday: 83 °F

Past Weeks' High & Low Weather Summary

 TemperatureHumidityPressure
High90 °F (May 20, 12:00 PM)89% (May 19, 7:00 AM)30.04 "Hg (May 19, 7:00 AM)
Low79 °F (May 8, 3:00 AM)55% (May 9, 12:00 PM)29.83 "Hg (May 20, 5:00 PM)
Average82 °F74%29.94 "Hg
* Reported May 7 11:00 AM — May 22 11:00 AM, Willemstad, Weather by CustomWeather, © 2015

Note: Actual official high and low records may vary slightly from our data, if they occured in-between our weather recording intervals... More about our weather records

Advertising

Willemstad weather history for previous 24 hours

 ConditionsComfort  
Time TempWeatherWind HumidityBarometerVisibility
11:00 AM
Fri, May 22
86 °FPartly sunny.16 mph70%30.04 "HgN/A
10:00 AM84 °FPartly sunny.12 mph74%30.04 "HgN/A
9:00 AM82 °FScattered clouds.16 mph79%30.01 "HgN/A
8:00 AM82 °FPartly sunny.16 mph79%30.01 "HgN/A
7:00 AM81 °FScattered clouds.13 mph84%29.98 "HgN/A
6:00 AM81 °FPassing clouds.14 mph84%29.98 "HgN/A
3:00 AM81 °FPassing clouds.12 mph79%29.95 "HgN/A
2:00 AM81 °FPassing clouds.14 mph79%29.95 "HgN/A
12:00 AM81 °FPassing clouds.13 mph79%29.95 "HgN/A
11:00 PM
Thu, May 21
81 °FPassing clouds.14 mph84%29.95 "HgN/A
10:00 PM81 °FClear.14 mph84%29.95 "Hg10 mi
9:00 PM81 °FClear.15 mph84%29.92 "Hg10 mi
8:00 PM81 °FClear.16 mph84%29.89 "Hg10 mi
7:00 PM82 °FClear.14 mph79%29.89 "Hg10 mi
6:00 PM84 °FSunny.15 mph74%29.86 "Hg10 mi
5:00 PM86 °FPassing clouds.14 mph70%29.86 "HgN/A
4:00 PM86 °FScattered clouds.12 mph70%29.86 "HgN/A
3:00 PM88 °FScattered clouds.15 mph66%29.89 "HgN/A
2:00 PM86 °FPartly sunny.17 mph66%29.92 "HgN/A
1:00 PM88 °FPartly sunny.16 mph66%29.95 "HgN/A
12:00 PM84 °FScattered clouds.15 mph74%29.95 "HgN/A
Weather by CustomWeather, © 2015

See weather overviewHow to use our weather pages